CAPE
nan nan nan nan nan nan nan nan nan nan nan nan nan nan nan nan nan nan nan nan nan nan nan nan nan nan nan nan nan nan nan nan nan nan 0 0 0 0 0 0 0 0 1 1 1 2 3 4 4 6 8 10 14 14 15 15 15 15 13 11 11 12 14 19 19 25 33 36 43 43 50 60 73 73 86 100 128 128 144 150 150 161 177 187 187 200
nan nan nan nan nan nan nan nan nan nan nan nan nan nan nan nan nan nan nan nan nan nan nan nan nan nan nan nan nan nan nan nan nan nan nan nan nan nan nan nan nan 0 0 1 1 1 2 3 3 5 6 8 12 12 12 13 13 11 10 9 9 8 10 15 15 22 30 37 44 44 53 61 71 71 85 93 102 102 104 106 106 114 126 134 134 143
nan nan nan nan nan nan nan nan nan nan nan nan nan nan nan nan nan nan nan nan nan nan nan nan nan nan nan nan nan nan nan nan nan nan nan nan nan nan nan nan nan nan 0 1 1 1 2 3 3 5 6 8 9 9 10 10 10 9 7 6 6 7 9 13 13 19 29 37 45 45 52 59 71 71 78 82 78 78 78 78 78 88 92 101 101 104
nan nan nan nan nan nan nan nan nan nan nan nan nan nan nan nan nan nan nan nan nan nan nan nan nan nan nan nan nan nan nan nan nan nan nan nan nan nan nan nan nan nan 0 1 1 1 2 4 4 5 7 9 9 9 9 8 8 6 6 5 5 6 9 12 12 18 26 34 43 43 51 55 60 60 62 66 67 67 66 77 77 82 89 93 93 108
nan nan nan nan nan nan nan nan nan nan nan nan nan nan nan nan nan nan nan nan nan nan nan nan nan nan nan nan nan nan nan nan nan nan nan nan nan nan nan nan nan nan 0 1 1 2 3 4 4 6 7 8 8 8 8 7 7 5 5 5 5 8 11 16 16 21 25 33 37 37 44 47 52 52 51 54 57 57 63 74 74 85 94 100 100 116
nan nan nan nan nan nan nan nan nan nan nan nan nan nan nan nan nan nan nan nan nan nan nan nan nan nan nan nan nan nan nan nan nan nan nan nan nan nan nan nan nan 0 0 0 0 1 3 4 4 6 6 7 7 7 6 5 5 5 5 6 6 9 15 20 20 24 28 30 37 37 40 41 47 47 46 47 50 50 56 69 69 86 95 104 104 119
nan nan nan nan nan nan nan nan nan nan nan nan nan nan nan nan nan nan nan nan nan nan nan nan nan nan nan nan nan nan nan nan nan nan nan nan nan nan nan nan nan nan 0 0 0 1 2 3 3 4 5 6 6 6 5 4 4 4 5 7 7 11 17 23 23 26 27 31 35 35 37 38 41 41 42 45 48 48 56 68 68 83 94 104 104 110
nan nan nan nan nan nan nan nan nan nan nan nan nan nan nan nan nan nan nan nan nan nan nan nan nan nan nan nan nan nan nan nan nan nan nan nan nan nan nan nan nan nan nan nan nan nan 0 0 0 0 2 4 3 3 2 2 2 3 5 9 9 14 20 23 23 25 27 29 29 29 28 34 37 37 39 45 48 48 56 60 60 73 87 94 94 103
nan nan nan nan nan nan nan nan nan nan nan nan nan nan nan nan nan nan nan nan nan nan nan nan nan nan nan nan nan nan nan nan nan nan nan nan nan nan nan nan nan nan nan nan nan nan nan nan nan 0 1 1 1 1 1 1 1 2 5 10 10 15 20 23 23 26 28 28 28 28 31 34 38 38 39 44 47 47 51 57 57 67 79 87 87 95
nan nan nan nan nan nan nan nan nan nan nan nan nan nan nan nan nan nan nan nan nan nan nan nan nan nan nan nan nan nan nan nan nan nan nan nan nan nan nan nan nan nan nan nan nan nan nan nan nan nan 0 0 0 0 0 1 1 2 7 11 11 16 20 23 23 26 27 27 27 27 30 35 37 37 40 47 51 51 54 59 59 62 72 80 80 87
nan nan nan nan nan nan nan nan nan nan nan nan nan nan nan nan nan nan nan nan nan nan nan nan nan nan nan nan nan nan nan nan nan nan nan nan nan nan nan nan nan nan nan nan nan nan nan nan nan nan nan nan nan nan 0 1 1 4 8 12 12 16 19 22 22 24 27 27 28 28 31 33 38 38 42 46 54 54 59 62 62 63 66 71 71 81
nan nan nan nan nan nan nan nan nan nan nan nan nan nan nan nan nan nan nan nan nan nan nan nan nan nan nan nan nan nan nan nan nan nan nan nan nan nan nan nan nan nan nan nan nan nan nan nan nan nan nan nan nan nan 0 1 1 5 10 13 13 17 18 21 21 23 24 26 29 29 33 36 40 40 40 48 55 55 61 63 63 62 64 69 69 80
nan nan nan nan nan nan nan nan nan nan nan nan nan nan nan nan nan nan nan nan nan nan nan nan nan nan nan nan nan nan nan nan nan nan nan nan nan nan nan nan nan nan nan nan nan nan nan nan nan nan nan nan nan nan 0 3 3 7 11 14 14 16 18 19 19 21 22 25 30 30 35 38 40 40 43 47 57 57 60 63 63 65 67 71 71 82
nan nan nan nan nan nan nan nan nan nan nan nan nan nan nan nan nan nan nan nan nan nan nan nan nan nan nan nan nan nan nan nan nan nan nan nan nan nan nan nan nan nan nan nan nan nan nan nan nan nan nan nan nan nan 1 5 5 9 12 14 14 15 16 16 16 19 23 28 33 33 35 39 42 42 43 48 56 56 60 62 62 66 70 76 76 81
nan nan nan nan nan nan nan nan nan nan nan nan nan nan nan nan nan nan nan nan nan nan nan nan nan nan nan nan nan nan nan nan nan nan nan nan nan nan nan nan nan nan nan nan nan nan nan nan nan nan nan nan nan nan 0 4 4 10 11 14 14 16 16 16 16 19 23 30 35 35 37 39 45 45 48 52 56 56 61 63 63 70 71 74 74 88
nan nan nan nan nan nan nan nan nan nan nan nan nan nan nan nan nan nan nan nan nan nan nan nan nan nan nan nan nan nan nan nan nan nan nan nan nan nan nan nan nan nan nan nan nan nan nan nan nan nan nan nan 0 0 1 5 5 8 10 14 14 16 16 17 17 21 27 36 41 41 44 47 49 49 53 56 58 58 64 66 66 69 77 80 80 93
nan nan nan nan nan nan nan nan nan nan nan nan nan nan nan nan nan nan nan nan nan nan nan nan nan nan nan nan nan nan nan nan nan nan nan nan nan nan nan nan nan nan nan nan nan nan nan nan nan nan nan nan 0 0 0 2 2 5 10 13 13 15 16 18 18 23 31 39 42 42 47 50 54 54 57 59 64 64 66 68 68 74 82 92 92 102
nan nan nan nan nan nan nan nan nan nan nan nan nan nan nan nan nan nan nan nan nan nan nan nan nan nan nan nan nan nan nan nan nan nan nan nan nan nan nan nan nan nan nan nan nan nan nan nan nan nan nan nan nan nan 0 2 2 5 9 14 14 16 18 21 21 27 33 41 46 46 47 51 54 54 58 63 66 66 69 73 73 78 85 91 91 102
nan nan nan nan nan nan nan nan nan nan nan nan nan nan nan nan nan nan nan nan nan nan nan nan nan nan nan nan nan nan nan nan nan nan nan nan nan nan nan nan nan nan nan nan nan nan nan nan nan nan nan nan nan nan 0 2 2 5 10 13 13 17 18 23 23 30 38 41 45 45 49 54 56 56 61 65 67 67 70 74 74 79 83 90 90 106
nan nan nan nan nan nan nan nan nan nan nan nan nan nan nan nan nan nan nan nan nan nan nan nan nan nan nan nan nan nan nan nan nan nan nan nan nan nan nan nan nan nan nan nan nan nan nan nan nan nan nan nan nan nan 0 2 2 5 9 13 13 17 19 25 25 31 38 44 47 47 49 54 58 58 60 67 69 69 71 75 75 81 85 94 94 118
nan nan nan nan nan nan nan nan nan nan nan nan nan nan nan nan nan nan nan nan nan nan nan nan nan nan nan nan nan nan nan nan nan nan nan nan nan nan nan nan nan nan nan nan nan nan nan nan nan nan nan nan nan nan 0 1 1 4 8 13 13 17 21 25 25 31 37 41 47 47 48 54 58 58 63 66 69 69 73 79 79 83 88 101 101 121
nan nan nan nan nan nan nan nan nan nan nan nan nan nan nan nan nan nan nan nan nan nan nan nan nan nan nan nan nan nan nan nan nan nan nan nan nan nan nan nan nan nan nan nan nan nan nan nan nan nan nan nan nan nan nan 1 1 3 8 13 13 18 22 26 26 31 34 39 45 45 47 54 56 56 61 65 68 68 74 76 76 82 91 112 112 111
nan nan nan nan nan nan nan nan nan nan nan nan nan nan nan nan nan nan nan nan nan nan nan nan nan nan nan nan nan nan nan nan nan nan nan nan nan nan nan nan nan nan nan nan nan nan nan nan nan nan nan nan nan nan nan 1 1 3 7 12 12 18 22 26 26 28 31 37 41 41 46 52 55 55 57 63 66 66 70 74 74 80 96 102 102 94
nan nan nan nan nan nan nan nan nan nan nan nan nan nan nan nan nan nan nan nan nan nan nan nan nan nan nan nan nan nan nan nan nan nan nan nan nan nan nan nan nan nan nan nan nan nan nan nan nan nan nan nan nan nan nan 0 0 3 7 13 13 17 20 26 26 27 30 35 39 39 46 50 53 53 55 56 60 60 67 74 74 86 101 97 97 75
nan nan nan nan nan nan nan nan nan nan nan nan nan nan nan nan nan nan nan nan nan nan nan nan nan nan nan nan nan nan nan nan nan nan nan nan nan nan nan nan nan nan nan nan nan nan nan nan nan nan nan nan nan nan nan 0 0 3 7 12 12 16 19 24 24 26 29 33 40 40 46 50 52 52 52 54 57 57 65 71 71 89 95 84 84 60
nan nan nan nan nan nan nan 2 2 2 nan nan nan nan nan nan nan nan nan nan nan nan nan nan nan nan nan nan nan nan nan nan nan nan nan nan nan nan nan nan nan nan nan nan nan nan nan nan nan nan nan nan nan nan nan 1 1 3 6 10 10 13 17 22 22 25 28 33 37 37 44 48 50 50 51 52 58 58 64 74 74 91 90 67 67 49
0 2 8 9 9 7 5 4 3 3 13 nan nan nan nan nan nan nan nan nan nan nan nan nan nan nan nan nan nan nan nan nan nan nan nan nan nan nan nan nan nan nan nan nan nan nan nan nan nan nan nan nan nan nan nan 1 1 2 4 7 7 11 16 19 19 23 29 33 37 37 41 46 47 47 50 51 57 57 64 76 76 83 74 58 58 43
12 9 6 4 4 1 0 0 1 1 3 8 7 7 nan nan nan nan nan nan nan nan nan nan nan nan nan nan nan nan nan nan nan nan nan nan nan nan nan nan nan nan nan nan nan nan nan nan nan nan nan nan nan nan nan 0 0 1 2 5 5 8 13 17 17 23 28 32 37 37 38 42 44 44 45 48 54 54 63 75 75 76 63 33 33 nan
2 2 1 0 0 nan nan nan 0 0 1 4 4 4 nan nan nan nan nan nan nan nan nan nan nan nan nan nan nan nan nan nan nan nan nan nan nan nan nan nan nan nan nan nan nan nan nan nan nan nan nan nan nan nan nan nan nan nan 1 3 3 5 8 16 16 22 27 31 34 34 38 40 42 42 44 46 56 56 65 71 71 71 48 21 21 0
nan nan nan nan nan nan nan nan nan nan 2 4 4 4 nan nan nan nan nan nan nan nan nan nan nan nan nan nan nan nan nan nan nan nan nan nan nan nan nan nan nan nan nan nan nan nan nan nan nan nan nan nan nan nan nan nan nan nan nan 1 1 2 6 12 12 19 23 26 30 30 33 37 39 39 40 48 55 55 62 63 63 52 21 5 5 3
nan nan nan nan nan nan nan nan nan nan 0 5 4 4 nan nan nan nan nan nan nan nan nan nan nan nan nan nan nan nan nan nan nan nan nan nan nan nan nan nan nan nan nan nan nan nan nan nan nan nan nan nan nan nan nan nan nan nan nan nan nan nan 4 9 9 14 17 20 27 27 31 33 35 35 38 44 51 51 58 61 61 48 15 7 7 nan
nan nan nan nan nan nan nan nan nan nan nan nan nan nan nan nan nan nan nan nan nan nan nan nan nan nan nan nan nan nan nan nan nan nan nan nan nan nan nan nan nan nan nan nan nan nan nan nan nan nan nan nan nan nan nan nan nan nan nan nan nan nan nan 2 2 3 3 9 16 16 22 24 28 28 34 37 43 43 52 56 56 54 23 5 5 8
nan nan nan nan nan nan nan nan nan nan nan nan nan nan nan nan nan nan nan nan nan nan nan nan nan nan nan nan nan nan nan nan nan nan 4 nan nan nan nan nan nan nan nan nan nan nan nan nan nan nan nan nan nan nan nan nan nan nan nan nan nan nan nan nan nan nan nan 0 0 0 10 15 25 25 30 33 41 41 50 54 54 56 44 7 7 9
nan nan nan nan nan nan nan nan nan nan nan nan nan nan nan nan nan nan nan nan nan nan nan nan nan nan nan nan nan nan nan nan nan nan 4 0 nan nan nan nan nan nan nan nan nan nan nan nan nan nan nan nan nan nan nan nan nan nan nan nan nan nan nan nan nan nan nan nan nan nan nan nan 17 17 21 29 38 38 48 52 52 54 45 25 25 12
nan nan nan nan nan nan nan nan nan nan nan nan nan nan nan nan nan nan nan nan nan nan nan nan nan nan nan nan nan nan nan nan nan nan 5 2 0 0 nan nan nan nan nan nan nan nan nan nan nan nan nan nan nan nan nan nan nan nan nan nan nan nan nan nan nan nan nan nan nan nan nan nan nan nan 4 18 32 32 42 42 42 44 42 44 44 29
nan nan nan nan nan nan nan nan nan nan nan nan nan nan nan nan nan nan nan nan nan nan nan nan nan nan nan nan nan nan nan nan nan nan 3 nan nan nan nan nan nan nan nan nan nan nan nan nan nan nan 0 nan nan nan nan nan nan nan nan nan nan nan nan nan nan nan nan nan nan nan nan nan nan nan 0 18 25 25 26 26 26 28 33 38 38 35
nan nan nan nan nan nan nan nan nan nan nan nan nan nan nan nan nan nan nan nan nan nan nan nan nan nan nan nan nan nan nan nan nan nan nan nan nan nan nan nan nan nan nan nan nan nan nan nan nan nan nan nan nan nan nan nan nan nan nan nan nan nan nan nan nan nan nan nan nan nan nan nan nan nan 1 13 7 7 8 11 11 12 20 27 27 33
nan nan nan nan nan nan nan nan nan nan nan nan nan nan nan nan nan nan nan nan nan nan nan nan nan nan nan 0 nan nan nan nan nan nan nan nan nan nan nan nan nan nan nan nan nan nan nan nan nan nan nan nan nan nan nan nan nan nan nan nan nan nan nan nan nan nan nan nan 0 0 1 nan nan nan nan nan nan nan nan nan nan 0 5 5 5 20
nan nan nan nan nan nan nan nan nan nan nan nan nan nan nan nan nan nan nan nan nan nan nan nan nan nan nan nan nan nan nan nan nan nan nan nan nan nan nan nan nan nan nan nan nan nan nan nan nan nan nan nan nan nan nan nan nan nan nan nan nan nan nan nan nan nan nan nan 0 0 nan nan nan nan nan nan nan nan nan nan nan nan nan nan nan nan
nan nan nan nan nan nan nan nan nan nan nan nan nan nan nan nan nan nan nan nan nan nan nan nan nan nan nan nan nan nan nan nan nan nan nan nan nan nan nan nan nan nan nan nan nan nan nan nan nan nan nan nan nan nan nan nan nan nan 1 nan nan nan nan nan nan nan nan nan nan nan nan nan nan nan nan nan nan nan nan nan nan nan nan nan nan nan
nan nan nan nan nan nan nan nan nan nan nan nan nan nan nan nan nan nan nan nan nan nan nan nan nan nan nan nan nan nan nan nan nan nan nan nan nan nan nan nan nan nan nan nan nan nan nan nan nan nan nan nan nan nan nan nan nan 1 2 nan nan nan nan nan nan nan nan nan nan nan nan nan nan nan nan nan nan nan nan nan nan nan nan nan nan nan
nan nan nan nan nan nan nan nan nan nan nan nan nan nan nan nan nan nan nan nan nan nan nan nan nan nan nan nan nan nan nan nan nan nan nan nan nan nan nan nan nan nan nan nan nan nan nan nan nan nan nan nan nan nan nan nan nan 0 0 nan nan nan nan nan nan nan nan nan nan nan 0 nan nan nan nan nan nan nan nan nan nan nan 1 nan nan nan
nan nan nan nan nan nan nan nan nan nan nan nan nan nan nan nan nan nan nan nan nan nan nan nan nan nan nan nan nan nan nan nan nan nan nan nan nan nan nan nan nan nan nan nan nan nan nan nan nan nan nan nan nan nan nan nan nan nan nan nan nan nan nan nan nan nan nan nan nan nan nan nan nan nan nan nan nan nan nan nan nan 2 1 nan nan nan
nan nan nan nan nan nan nan nan nan nan nan nan nan nan nan nan nan nan nan nan nan nan nan nan nan nan nan nan nan nan nan nan nan nan nan nan nan nan nan nan nan nan nan nan nan nan nan nan nan nan nan nan nan nan nan nan nan nan nan nan nan nan nan nan nan nan nan nan nan nan nan nan nan nan nan nan nan nan nan nan nan nan nan nan nan nan
nan nan nan nan nan nan nan nan nan nan nan nan nan nan nan nan nan nan nan nan nan nan nan nan nan nan nan nan nan nan nan nan nan nan nan nan 0 0 nan nan nan nan nan nan nan nan nan nan nan nan nan nan nan nan nan nan nan nan nan nan nan nan nan nan nan nan nan nan nan nan nan nan nan nan nan nan nan nan nan nan nan nan nan nan nan nan
nan nan nan nan nan nan nan nan nan nan nan nan nan nan nan nan nan nan nan nan nan nan nan nan nan nan nan nan nan nan nan nan nan nan nan nan nan nan nan nan nan nan nan nan nan nan nan nan nan nan nan nan nan nan nan nan nan nan nan nan nan nan nan nan nan nan nan nan nan nan nan nan nan nan nan nan nan nan nan nan nan nan nan nan nan nan
nan nan nan nan nan nan nan nan nan nan nan nan nan nan nan nan nan nan nan nan nan nan nan nan nan nan nan nan nan nan nan nan nan nan nan nan nan nan nan nan nan nan nan nan nan nan nan nan nan nan nan nan nan nan nan nan nan nan nan nan nan nan nan nan nan nan nan nan nan nan nan nan nan nan nan nan nan nan nan nan nan nan nan nan nan nan
nan nan nan nan nan nan nan nan nan nan nan nan nan nan nan nan nan nan nan nan nan nan nan nan nan nan nan nan nan nan nan nan nan nan nan nan nan nan nan nan nan nan nan nan nan nan nan nan nan nan nan nan nan nan nan nan nan nan nan nan nan nan nan nan nan nan nan nan nan nan nan nan nan nan nan nan nan nan nan nan nan nan nan nan nan nan
nan nan nan nan nan nan nan nan nan nan nan nan nan nan nan nan 0 0 nan nan nan nan nan nan nan nan nan nan nan nan nan nan nan nan nan nan nan nan nan nan nan nan nan nan nan nan nan nan nan nan nan nan nan nan nan nan nan nan nan nan nan nan nan nan nan nan nan nan nan nan nan nan nan nan nan nan nan nan nan nan nan nan nan nan nan nan
nan nan nan nan nan nan nan nan nan nan nan nan nan nan nan nan nan nan nan nan nan nan nan nan nan nan nan nan nan nan nan nan nan nan nan nan nan nan nan nan nan nan nan nan nan nan nan nan nan nan nan nan nan nan nan nan nan nan nan nan nan nan nan nan nan nan nan nan nan nan nan nan nan nan nan nan nan nan nan nan nan nan nan nan nan nan
nan nan nan nan nan nan nan nan nan nan nan nan nan nan nan nan nan nan nan nan nan nan nan nan nan nan nan nan nan nan nan nan nan nan nan nan nan nan nan nan nan nan nan nan nan nan nan nan nan nan nan nan nan nan nan nan nan nan nan nan nan nan nan nan nan nan nan nan nan nan nan nan nan nan nan nan nan nan nan nan nan nan nan nan nan nan
CIN
nan nan nan nan nan nan nan nan nan nan nan nan nan nan nan nan nan nan nan nan nan nan nan nan nan nan nan nan nan nan nan nan nan nan -0 -0 -0 -0 -0 -0 -0 -0 -0 -0 -0 -0 -0 -0 -0 -0 -0 -0 -0 -0 -0 -0 -0 -0 -0 -0 -0 -0 -0 -0 -0 -0 -0 -0 -0 -0 -0 -0 -0 -0 -0 -0 -0 -0 -0 -0 -0 -0 -0 -0 -0 -0
nan nan nan nan nan nan nan nan nan nan nan nan nan nan nan nan nan nan nan nan nan nan nan nan nan nan nan nan nan nan nan nan nan nan nan nan nan nan nan nan nan -0 -0 -0 -0 -0 -0 -0 -0 -0 -0 -0 -0 -0 -0 -0 -0 -0 -0 -0 -0 -0 -0 -0 -0 -0 -0 -0 -0 -0 -0 -0 -0 -0 -0 -0 -0 -0 -0 -0 -0 -0 -0 -0 -0 -0
nan nan nan nan nan nan nan nan nan nan nan nan nan nan nan nan nan nan nan nan nan nan nan nan nan nan nan nan nan nan nan nan nan nan nan nan nan nan nan nan nan nan -0 -0 -0 -0 -0 -0 -0 -0 -0 -0 -0 -0 -0 -0 -0 -0 -0 -0 -0 -0 -0 -0 -0 -0 -0 -0 -0 -0 -0 -0 -0 -0 -0 -0 -0 -0 -0 -0 -0 -0 -0 -0 -0 -0
nan nan nan nan nan nan nan nan nan nan nan nan nan nan nan nan nan nan nan nan nan nan nan nan nan nan nan nan nan nan nan nan nan nan nan nan nan nan nan nan nan nan -0 -0 -0 -0 -0 -0 -0 -0 -0 -0 -0 -0 -0 -0 -0 -0 -0 -0 -0 -0 -0 -0 -0 -0 -0 -0 -0 -0 -0 -0 -0 -0 -0 -0 -0 -0 -0 -0 -0 -0 -0 -0 -0 -0
nan nan nan nan nan nan nan nan nan nan nan nan nan nan nan nan nan nan nan nan nan nan nan nan nan nan nan nan nan nan nan nan nan nan nan nan nan nan nan nan nan nan -0 -0 -0 -0 -0 -0 -0 -0 -0 -0 -0 -0 -0 -0 -0 -0 -0 -0 -0 -0 -0 -0 -0 -0 -0 -0 -0 -0 -0 -0 -0 -0 -0 -0 -0 -0 -0 -0 -0 -0 -0 -0 -0 -0
nan nan nan nan nan nan nan nan nan nan nan nan nan nan nan nan nan nan nan nan nan nan nan nan nan nan nan nan nan nan nan nan nan nan nan nan nan nan nan nan nan -0 -0 -0 -0 -0 -0 -0 -0 -0 -0 -0 -0 -0 -0 -0 -0 -0 -0 -0 -0 -0 -0 -0 -0 -0 -0 -0 -0 -0 -0 -0 -0 -0 -0 -0 -0 -0 -0 -0 -0 -0 -0 -0 -0 -0
nan nan nan nan nan nan nan nan nan nan nan nan nan nan nan nan nan nan nan nan nan nan nan nan nan nan nan nan nan nan nan nan nan nan nan nan nan nan nan nan nan nan -0 -0 -0 -0 -0 -0 -0 -0 -0 -0 -0 -0 -0 -0 -0 -0 -0 -0 -0 -0 -0 -0 -0 -0 -0 -0 -0 -0 -0 -0 -0 -0 -0 -0 -0 -0 -0 -0 -0 -0 -0 -0 -0 -0
nan nan nan nan nan nan nan nan nan nan nan nan nan nan nan nan nan nan nan nan nan nan nan nan nan nan nan nan nan nan nan nan nan nan nan nan nan nan nan nan nan nan nan nan nan nan -0 -0 -0 -0 -0 -0 -0 -0 -0 -0 -0 -0 -0 -0 -0 -0 -0 -0 -0 -0 -0 -0 -0 -0 -0 -0 -0 -0 -0 -0 -0 -0 -0 -0 -0 -0 -0 -0 -0 -0
nan nan nan nan nan nan nan nan nan nan nan nan nan nan nan nan nan nan nan nan nan nan nan nan nan nan nan nan nan nan nan nan nan nan nan nan nan nan nan nan nan nan nan nan nan nan nan nan nan -0 -0 -0 -0 -0 -0 -0 -0 -0 -0 -0 -0 -0 -0 -0 -0 -0 -0 -0 -0 -0 -0 -0 -0 -0 -0 -0 -0 -0 -0 -0 -0 -0 -0 -0 -0 -0
nan nan nan nan nan nan nan nan nan nan nan nan nan nan nan nan nan nan nan nan nan nan nan nan nan nan nan nan nan nan nan nan nan nan nan nan nan nan nan nan nan nan nan nan nan nan nan nan nan nan -0 -0 -0 -0 -0 -0 -0 -0 -0 -0 -0 -0 -0 -0 -0 -0 -0 -0 -0 -0 -0 -0 -0 -0 -0 -0 -0 -0 -0 -0 -0 -0 -0 -0 -0 -0
nan nan nan nan nan nan nan nan nan nan nan nan nan nan nan nan nan nan nan nan nan nan nan nan nan nan nan nan nan nan nan nan nan nan nan nan nan nan nan nan nan nan nan nan nan nan nan nan nan nan nan nan nan nan -0 -0 -0 -0 -0 -0 -0 -0 -0 -0 -0 -0 -0 -0 -0 -0 -0 -0 -0 -0 -0 -0 -0 -0 -0 -0 -0 -0 -0 -0 -0 -0
nan nan nan nan nan nan nan nan nan nan nan nan nan nan nan nan nan nan nan nan nan nan nan nan nan nan nan nan nan nan nan nan nan nan nan nan nan nan nan nan nan nan nan nan nan nan nan nan nan nan nan nan nan nan -0 -0 -0 -0 -0 -0 -0 -0 -0 -0 -0 -0 -0 -0 -0 -0 -0 -0 -0 -0 -0 -0 -0 -0 -0 -0 -0 -0 -0 -0 -0 -0
nan nan nan nan nan nan nan nan nan nan nan nan nan nan nan nan nan nan nan nan nan nan nan nan nan nan nan nan nan nan nan nan nan nan nan nan nan nan nan nan nan nan nan nan nan nan nan nan nan nan nan nan nan nan -0 -0 -0 -0 -0 -0 -0 -0 -0 -0 -0 -0 -0 -0 -0 -0 -0 -0 -0 -0 -0 -0 -0 -0 -0 -0 -0 -0 -0 -0 -0 -0
nan nan nan nan nan nan nan nan nan nan nan nan nan nan nan nan nan nan nan nan nan nan nan nan nan nan nan nan nan nan nan nan nan nan nan nan nan nan nan nan nan nan nan nan nan nan nan nan nan nan nan nan nan nan -0 -0 -0 -0 -0 -0 -0 -0 -0 -0 -0 -0 -0 -0 -0 -0 -0 -0 -0 -0 -0 -0 -0 -0 -0 -0 -0 -0 -0 -0 -0 -0
nan nan nan nan nan nan nan nan nan nan nan nan nan nan nan nan nan nan nan nan nan nan nan nan nan nan nan nan nan nan nan nan nan nan nan nan nan nan nan nan nan nan nan nan nan nan nan nan nan nan nan nan nan nan -0 -0 -0 -0 -0 -0 -0 -0 -0 -0 -0 -0 -0 -0 -0 -0 -0 -0 -0 -0 -0 -0 -0 -0 -0 -0 -0 -0 -0 -0 -0 -0
nan nan nan nan nan nan nan nan nan nan nan nan nan nan nan nan nan nan nan nan nan nan nan nan nan nan nan nan nan nan nan nan nan nan nan nan nan nan nan nan nan nan nan nan nan nan nan nan nan nan nan nan -0 -0 -0 -0 -0 -0 -0 -0 -0 -0 -0 -0 -0 -0 -0 -0 -0 -0 -0 -0 -0 -0 -0 -0 -0 -0 -0 -0 -0 -0 -0 -0 -0 -0
nan nan nan nan nan nan nan nan nan nan nan nan nan nan nan nan nan nan nan nan nan nan nan nan nan nan nan nan nan nan nan nan nan nan nan nan nan nan nan nan nan nan nan nan nan nan nan nan nan nan nan nan -0 -0 -0 -0 -0 -0 -0 -0 -0 -0 -0 -0 -0 -0 -0 -0 -0 -0 -0 -0 -0 -0 -0 -0 -0 -0 -0 -0 -0 -0 -0 -0 -0 -0
nan nan nan nan nan nan nan nan nan nan nan nan nan nan nan nan nan nan nan nan nan nan nan nan nan nan nan nan nan nan nan nan nan nan nan nan nan nan nan nan nan nan nan nan nan nan nan nan nan nan nan nan nan nan -0 -0 -0 -0 -0 -0 -0 -0 -0 -0 -0 -0 -0 -0 -0 -0 -0 -0 -0 -0 -0 -0 -0 -0 -0 -0 -0 -0 -0 -0 -0 -0
nan nan nan nan nan nan nan nan nan nan nan nan nan nan nan nan nan nan nan nan nan nan nan nan nan nan nan nan nan nan nan nan nan nan nan nan nan nan nan nan nan nan nan nan nan nan nan nan nan nan nan nan nan nan -0 -0 -0 -0 -0 -0 -0 -0 -0 -0 -0 -0 -0 -0 -0 -0 -0 -0 -0 -0 -0 -0 -0 -0 -0 -0 -0 -0 -0 -0 -0 -0
nan nan nan nan nan nan nan nan nan nan nan nan nan nan nan nan nan nan nan nan nan nan nan nan nan nan nan nan nan nan nan nan nan nan nan nan nan nan nan nan nan nan nan nan nan nan nan nan nan nan nan nan nan nan -0 -0 -0 -0 -0 -0 -0 -0 -0 -0 -0 -0 -0 -0 -0 -0 -0 -0 -0 -0 -0 -0 -0 -0 -0 -0 -0 -0 -0 -0 -0 -0
nan nan nan nan nan nan nan nan nan nan nan nan nan nan nan nan nan nan nan nan nan nan nan nan nan nan nan nan nan nan nan nan nan nan nan nan nan nan nan nan nan nan nan nan nan nan nan nan nan nan nan nan nan nan -0 -0 -0 -0 -0 -0 -0 -0 -0 -0 -0 -0 -0 -0 -0 -0 -0 -0 -0 -0 -0 -0 -0 -0 -0 -0 -0 -0 -0 -0 -0 -0
nan nan nan nan nan nan nan nan nan nan nan nan nan nan nan nan nan nan nan nan nan nan nan nan nan nan nan nan nan nan nan nan nan nan nan nan nan nan nan nan nan nan nan nan nan nan nan nan nan nan nan nan nan nan nan -0 -0 -0 -0 -0 -0 -0 -0 -0 -0 -0 -0 -0 -0 -0 -0 -0 -0 -0 -0 -0 -0 -0 -0 -0 -0 -0 -0 -0 -0 -0
nan nan nan nan nan nan nan nan nan nan nan nan nan nan nan nan nan nan nan nan nan nan nan nan nan nan nan nan nan nan nan nan nan nan nan nan nan nan nan nan nan nan nan nan nan nan nan nan nan nan nan nan nan nan nan -0 -0 -0 -0 -0 -0 -0 -0 -0 -0 -0 -0 -0 -0 -0 -0 -0 -0 -0 -0 -0 -0 -0 -0 -0 -0 -0 -0 -0 -0 -0
nan nan nan nan nan nan nan nan nan nan nan nan nan nan nan nan nan nan nan nan nan nan nan nan nan nan nan nan nan nan nan nan nan nan nan nan nan nan nan nan nan nan nan nan nan nan nan nan nan nan nan nan nan nan nan -0 -0 -0 -0 -0 -0 -0 -0 -0 -0 -0 -0 -0 -0 -0 -0 -0 -0 -0 -0 -0 -0 -0 -0 -0 -0 -0 -0 -0 -0 -0
nan nan nan nan nan nan nan nan nan nan nan nan nan nan nan nan nan nan nan nan nan nan nan nan nan nan nan nan nan nan nan nan nan nan nan nan nan nan nan nan nan nan nan nan nan nan nan nan nan nan nan nan nan nan nan -0 -0 -0 -0 -0 -0 -0 -0 -0 -0 -0 -0 -0 -0 -0 -0 -0 -0 -0 -0 -0 -0 -0 -0 -0 -0 -0 -0 -0 -0 -0
nan nan nan nan nan nan nan -1 -8 -8 nan nan nan nan nan nan nan nan nan nan nan nan nan nan nan nan nan nan nan nan nan nan nan nan nan nan nan nan nan nan nan nan nan nan nan nan nan nan nan nan nan nan nan nan nan -0 -0 -0 -0 -0 -0 -0 -0 -0 -0 -0 -0 -0 -0 -0 -0 -0 -0 -0 -0 -0 -0 -0 -0 -0 -0 -0 -0 -0 -0 -0
-3 -1 -0 -0 -0 -0 -0 -0 -0 -0 -0 nan nan nan nan nan nan nan nan nan nan nan nan nan nan nan nan nan nan nan nan nan nan nan nan nan nan nan nan nan nan nan nan nan nan nan nan nan nan nan nan nan nan nan nan -0 -0 -0 -0 -0 -0 -0 -0 -0 -0 -0 -0 -0 -0 -0 -0 -0 -0 -0 -0 -0 -0 -0 -0 -0 -0 -0 -0 -0 -0 -0
-0 -0 -0 -0 -0 -0 -0 -0 -0 -0 -0 -0 -0 -0 nan nan nan nan nan nan nan nan nan nan nan nan nan nan nan nan nan nan nan nan nan nan nan nan nan nan nan nan nan nan nan nan nan nan nan nan nan nan nan nan nan -0 -0 -0 -0 -0 -0 -0 -0 -0 -0 -0 -0 -0 -0 -0 -0 -0 -0 -0 -0 -0 -0 -0 -0 -0 -0 -0 -0 -0 -0 nan
-0 -0 -0 -0 -0 nan nan nan -0 -0 -0 -0 -0 -0 nan nan nan nan nan nan nan nan nan nan nan nan nan nan nan nan nan nan nan nan nan nan nan nan nan nan nan nan nan nan nan nan nan nan nan nan nan nan nan nan nan nan nan nan -0 -0 -0 -0 -0 -0 -0 -0 -0 -0 -0 -0 -0 -0 -0 -0 -0 -0 -0 -0 -0 -0 -0 -0 -0 -0 -0 -23
nan nan nan nan nan nan nan nan nan nan -0 -0 -0 -0 nan nan nan nan nan nan nan nan nan nan nan nan nan nan nan nan nan nan nan nan nan nan nan nan nan nan nan nan nan nan nan nan nan nan nan nan nan nan nan nan nan nan nan nan nan -0 -0 -0 -0 -0 -0 -0 -0 -0 -0 -0 -0 -0 -0 -0 -0 -0 -0 -0 -0 -0 -0 -0 -0 -6 -6 -17
nan nan nan nan nan nan nan nan nan nan -0 -0 -0 -0 nan nan nan nan nan nan nan nan nan nan nan nan nan nan nan nan nan nan nan nan nan nan nan nan nan nan nan nan nan nan nan nan nan nan nan nan nan nan nan nan nan nan nan nan nan nan nan nan -0 -0 -0 -0 -0 -0 -0 -0 -0 -0 -0 -0 -0 -0 -0 -0 -0 -0 -0 -0 -2 -6 -6 nan
nan nan nan nan nan nan nan nan nan nan nan nan nan nan nan nan nan nan nan nan nan nan nan nan nan nan nan nan nan nan nan nan nan nan nan nan nan nan nan nan nan nan nan nan nan nan nan nan nan nan nan nan nan nan nan nan nan nan nan nan nan nan nan -0 -0 -0 -0 -0 -0 -0 -0 -0 -0 -0 -0 -0 -0 -0 -0 -0 -0 -0 -0 -6 -6 -1
nan nan nan nan nan nan nan nan nan nan nan nan nan nan nan nan nan nan nan nan nan nan nan nan nan nan nan nan nan nan nan nan nan nan -0 nan nan nan nan nan nan nan nan nan nan nan nan nan nan nan nan nan nan nan nan nan nan nan nan nan nan nan nan nan nan nan nan -0 -0 -0 -0 -0 -0 -0 -0 -0 -0 -0 -0 -0 -0 -0 -0 -6 -6 -2
nan nan nan nan nan nan nan nan nan nan nan nan nan nan nan nan nan nan nan nan nan nan nan nan nan nan nan nan nan nan nan nan nan nan -0 -1 nan nan nan nan nan nan nan nan nan nan nan nan nan nan nan nan nan nan nan nan nan nan nan nan nan nan nan nan nan nan nan nan nan nan nan nan -0 -0 -0 -0 -0 -0 -0 -0 -0 -0 -0 -0 -0 -2
nan nan nan nan nan nan nan nan nan nan nan nan nan nan nan nan nan nan nan nan nan nan nan nan nan nan nan nan nan nan nan nan nan nan -0 -0 -1 -1 nan nan nan nan nan nan nan nan nan nan nan nan nan nan nan nan nan nan nan nan nan nan nan nan nan nan nan nan nan nan nan nan nan nan nan nan -0 -0 -0 -0 -0 -0 -0 -0 -0 -0 -0 -0
nan nan nan nan nan nan nan nan nan nan nan nan nan nan nan nan nan nan nan nan nan nan nan nan nan nan nan nan nan nan nan nan nan nan -0 nan nan nan nan nan nan nan nan nan nan nan nan nan nan nan -0 nan nan nan nan nan nan nan nan nan nan nan nan nan nan nan nan nan nan nan nan nan nan nan -0 -0 -0 -0 -0 -0 -0 -0 -0 -0 -0 -0
nan nan nan nan nan nan nan nan nan nan nan nan nan nan nan nan nan nan nan nan nan nan nan nan nan nan nan nan nan nan nan nan nan nan nan nan nan nan nan nan nan nan nan nan nan nan nan nan nan nan nan nan nan nan nan nan nan nan nan nan nan nan nan nan nan nan nan nan nan nan nan nan nan nan -0 -0 -0 -0 -0 -0 -0 -0 -0 -0 -0 -0
nan nan nan nan nan nan nan nan nan nan nan nan nan nan nan nan nan nan nan nan nan nan nan nan nan nan nan -0 nan nan nan nan nan nan nan nan nan nan nan nan nan nan nan nan nan nan nan nan nan nan nan nan nan nan nan nan nan nan nan nan nan nan nan nan nan nan nan nan -0 -0 -0 nan nan nan nan nan nan nan nan nan nan -0 -0 -0 -0 -0
nan nan nan nan nan nan nan nan nan nan nan nan nan nan nan nan nan nan nan nan nan nan nan nan nan nan nan nan nan nan nan nan nan nan nan nan nan nan nan nan nan nan nan nan nan nan nan nan nan nan nan nan nan nan nan nan nan nan nan nan nan nan nan nan nan nan nan nan -0 -0 nan nan nan nan nan nan nan nan nan nan nan nan nan nan nan nan
nan nan nan nan nan nan nan nan nan nan nan nan nan nan nan nan nan nan nan nan nan nan nan nan nan nan nan nan nan nan nan nan nan nan nan nan nan nan nan nan nan nan nan nan nan nan nan nan nan nan nan nan nan nan nan nan nan nan -0 nan nan nan nan nan nan nan nan nan nan nan nan nan nan nan nan nan nan nan nan nan nan nan nan nan nan nan
nan nan nan nan nan nan nan nan nan nan nan nan nan nan nan nan nan nan nan nan nan nan nan nan nan nan nan nan nan nan nan nan nan nan nan nan nan nan nan nan nan nan nan nan nan nan nan nan nan nan nan nan nan nan nan nan nan -0 -0 nan nan nan nan nan nan nan nan nan nan nan nan nan nan nan nan nan nan nan nan nan nan nan nan nan nan nan
nan nan nan nan nan nan nan nan nan nan nan nan nan nan nan nan nan nan nan nan nan nan nan nan nan nan nan nan nan nan nan nan nan nan nan nan nan nan nan nan nan nan nan nan nan nan nan nan nan nan nan nan nan nan nan nan nan -0 -0 nan nan nan nan nan nan nan nan nan nan nan -0 nan nan nan nan nan nan nan nan nan nan nan -0 nan nan nan
nan nan nan nan nan nan nan nan nan nan nan nan nan nan nan nan nan nan nan nan nan nan nan nan nan nan nan nan nan nan nan nan nan nan nan nan nan nan nan nan nan nan nan nan nan nan nan nan nan nan nan nan nan nan nan nan nan nan nan nan nan nan nan nan nan nan nan nan nan nan nan nan nan nan nan nan nan nan nan nan nan -0 -0 nan nan nan
nan nan nan nan nan nan nan nan nan nan nan nan nan nan nan nan nan nan nan nan nan nan nan nan nan nan nan nan nan nan nan nan nan nan nan nan nan nan nan nan nan nan nan nan nan nan nan nan nan nan nan nan nan nan nan nan nan nan nan nan nan nan nan nan nan nan nan nan nan nan nan nan nan nan nan nan nan nan nan nan nan nan nan nan nan nan
nan nan nan nan nan nan nan nan nan nan nan nan nan nan nan nan nan nan nan nan nan nan nan nan nan nan nan nan nan nan nan nan nan nan nan nan -3 -3 nan nan nan nan nan nan nan nan nan nan nan nan nan nan nan nan nan nan nan nan nan nan nan nan nan nan nan nan nan nan nan nan nan nan nan nan nan nan nan nan nan nan nan nan nan nan nan nan
nan nan nan nan nan nan nan nan nan nan nan nan nan nan nan nan nan nan nan nan nan nan nan nan nan nan nan nan nan nan nan nan nan nan nan nan nan nan nan nan nan nan nan nan nan nan nan nan nan nan nan nan nan nan nan nan nan nan nan nan nan nan nan nan nan nan nan nan nan nan nan nan nan nan nan nan nan nan nan nan nan nan nan nan nan nan
nan nan nan nan nan nan nan nan nan nan nan nan nan nan nan nan nan nan nan nan nan nan nan nan nan nan nan nan nan nan nan nan nan nan nan nan nan nan nan nan nan nan nan nan nan nan nan nan nan nan nan nan nan nan nan nan nan nan nan nan nan nan nan nan nan nan nan nan nan nan nan nan nan nan nan nan nan nan nan nan nan nan nan nan nan nan
nan nan nan nan nan nan nan nan nan nan nan nan nan nan nan nan nan nan nan nan nan nan nan nan nan nan nan nan nan nan nan nan nan nan nan nan nan nan nan nan nan nan nan nan nan nan nan nan nan nan nan nan nan nan nan nan nan nan nan nan nan nan nan nan nan nan nan nan nan nan nan nan nan nan nan nan nan nan nan nan nan nan nan nan nan nan
nan nan nan nan nan nan nan nan nan nan nan nan nan nan nan nan -0 -0 nan nan nan nan nan nan nan nan nan nan nan nan nan nan nan nan nan nan nan nan nan nan nan nan nan nan nan nan nan nan nan nan nan nan nan nan nan nan nan nan nan nan nan nan nan nan nan nan nan nan nan nan nan nan nan nan nan nan nan nan nan nan nan nan nan nan nan nan
nan nan nan nan nan nan nan nan nan nan nan nan nan nan nan nan nan nan nan nan nan nan nan nan nan nan nan nan nan nan nan nan nan nan nan nan nan nan nan nan nan nan nan nan nan nan nan nan nan nan nan nan nan nan nan nan nan nan nan nan nan nan nan nan nan nan nan nan nan nan nan nan nan nan nan nan nan nan nan nan nan nan nan nan nan nan
nan nan nan nan nan nan nan nan nan nan nan nan nan nan nan nan nan nan nan nan nan nan nan nan nan nan nan nan nan nan nan nan nan nan nan nan nan nan nan nan nan nan nan nan nan nan nan nan nan nan nan nan nan nan nan nan nan nan nan nan nan nan nan nan nan nan nan nan nan nan nan nan nan nan nan nan nan nan nan nan nan nan nan nan nan nan
Wind_Speed
1 1 1 1 1 1 1 2 2 2 2 2 2 3 3 3 3 3 3 3 2 3 3 4 4 5 6 9 11 12 12 12 12 12 12 13 13 13 14 14 14 14 14 14 14 14 14 14 15 15 15 16 16 16 17 17 17 17 17 17 17 18 18 18 18 18 19 19 19 19 19 20 20 20 20 20 20 21 21 21 21 21 22 22 22 23
1 1 1 1 1 1 1 1 1 1 1 1 2 2 3 3 3 3 3 2 2 2 3 4 4 5 5 7 10 12 12 12 12 12 12 13 13 14 14 14 14 14 14 14 14 14 14 14 15 15 15 16 16 16 16 17 17 17 17 17 17 17 17 18 18 18 18 19 19 19 19 19 20 20 20 20 20 20 20 21 21 22 22 23 23 23
1 1 1 1 1 1 0 1 1 0 1 1 1 1 2 2 3 3 3 3 3 3 3 3 4 4 5 6 9 11 12 12 12 12 13 13 13 14 14 14 14 14 14 14 14 14 14 14 15 15 15 16 16 16 16 16 16 17 17 17 17 17 17 17 17 18 18 18 18 18 19 19 19 19 19 20 20 20 20 20 21 21 22 22 23 23
1 1 0 1 1 1 0 1 1 1 1 1 1 1 1 1 2 2 2 3 3 3 3 3 3 4 4 5 7 10 12 12 12 12 13 13 14 14 14 15 15 14 14 14 14 14 14 15 15 15 16 16 16 16 16 16 16 17 17 17 17 17 17 17 17 17 17 17 18 18 18 19 19 19 19 19 19 20 20 20 21 21 22 22 22 22
0 0 0 0 0 0 1 1 1 1 1 1 1 1 1 1 1 2 3 2 3 3 3 3 3 3 4 4 6 9 11 11 12 12 13 13 14 14 15 15 15 15 14 14 14 14 15 15 15 15 16 16 16 16 16 16 16 17 17 17 17 16 16 17 17 17 17 17 17 18 18 18 18 18 19 19 19 19 20 20 20 21 21 21 22 22
0 0 0 0 0 0 1 1 1 1 1 1 1 1 1 1 1 2 2 2 3 3 3 3 3 3 4 4 6 8 10 11 11 12 13 13 14 15 15 15 15 15 15 15 15 15 15 15 16 16 16 16 16 16 16 16 16 16 16 16 16 16 16 16 16 17 17 17 17 17 18 18 18 18 19 19 19 19 19 20 20 21 21 21 21 21
0 1 1 1 0 1 1 1 1 1 2 2 2 2 2 1 1 1 2 2 2 2 3 3 3 3 3 5 6 8 8 9 10 11 12 13 14 14 15 15 15 15 15 15 15 15 16 16 16 16 16 16 16 16 16 16 16 16 16 16 16 16 16 16 16 17 17 17 17 17 18 18 18 18 19 19 19 19 19 20 20 20 20 21 21 21
1 0 1 1 1 1 1 1 1 1 1 1 2 2 2 2 2 2 2 2 2 2 2 3 3 3 3 3 4 5 5 6 6 7 9 10 12 13 14 14 15 15 15 15 16 16 16 16 16 16 16 16 16 16 16 16 16 16 16 16 16 16 16 16 16 17 17 17 17 17 18 18 18 18 18 19 19 19 19 19 19 20 20 20 20 20
1 1 1 1 1 1 1 1 1 1 1 1 1 1 1 2 2 2 2 2 2 2 2 3 3 4 3 3 3 3 3 3 4 5 6 6 7 9 12 13 14 14 15 15 16 16 16 16 16 16 16 16 16 17 17 16 16 16 16 16 16 16 16 16 16 17 17 17 17 17 17 18 18 18 18 18 18 19 19 19 19 19 19 19 20 20
1 1 1 1 1 1 1 1 1 1 1 1 1 1 1 1 2 3 3 2 2 2 1 2 3 4 4 3 2 2 2 3 5 7 8 8 9 10 11 11 12 12 14 15 15 16 16 16 16 16 16 16 17 17 17 17 16 16 16 16 16 16 16 16 16 17 17 17 17 17 17 18 18 18 18 18 18 18 18 18 18 19 19 19 19 20
1 1 1 1 1 1 0 0 1 1 1 1 1 1 1 1 1 3 4 4 4 3 2 2 3 3 4 3 2 1 1 2 4 6 7 8 10 11 11 11 11 12 13 14 14 15 15 15 16 16 16 17 17 17 17 16 16 16 16 16 16 16 16 16 16 17 17 17 17 17 17 18 18 18 18 18 18 18 18 18 18 18 18 19 19 19
1 1 1 1 1 1 1 1 1 1 1 2 2 2 2 1 1 1 2 4 4 4 4 3 3 3 3 3 2 2 2 3 3 4 4 5 6 7 7 7 8 9 10 11 12 13 14 14 15 15 15 16 17 17 17 16 16 16 16 16 16 16 16 16 16 16 17 17 17 17 17 18 18 18 18 18 18 18 18 18 18 18 18 18 19 19
1 1 1 1 1 1 1 2 2 2 2 2 1 1 2 1 0 0 1 2 3 4 4 4 4 3 3 2 1 2 2 4 4 4 4 4 3 4 4 4 4 5 5 6 6 8 10 12 13 14 15 15 16 17 17 16 16 16 16 16 16 16 16 16 16 16 17 17 17 17 17 17 18 18 18 18 18 18 18 18 18 18 18 18 19 19
1 1 1 1 1 1 1 1 1 1 1 0 1 1 1 1 1 1 2 2 3 3 3 4 4 3 2 1 1 1 2 4 5 5 4 4 3 3 3 4 4 4 3 3 4 5 8 9 9 10 13 14 15 16 16 16 16 16 16 16 16 16 16 16 16 16 17 17 17 17 17 17 18 18 18 18 18 18 18 18 18 18 18 18 19 19
1 2 2 1 1 0 0 1 0 0 1 2 2 1 1 1 1 2 2 3 3 3 3 3 4 3 2 2 1 1 2 4 5 5 6 5 4 3 2 3 4 4 3 3 4 5 7 6 6 6 8 11 12 14 15 15 16 16 16 16 16 16 16 16 16 17 17 17 17 17 18 18 18 18 18 18 18 18 18 18 18 18 18 18 19 19
2 2 2 2 1 1 1 1 1 1 2 2 1 0 0 1 1 2 3 3 3 3 3 4 4 3 2 2 1 1 2 4 5 5 6 6 4 3 1 2 4 4 4 4 4 4 5 4 5 5 7 11 14 16 17 17 17 17 16 16 16 16 16 16 17 17 17 17 18 18 18 18 18 18 18 18 18 18 18 18 18 18 18 18 19 19
1 2 2 2 1 1 1 1 1 1 2 1 1 1 1 1 1 2 2 3 3 2 2 2 3 3 3 2 1 1 2 4 5 5 6 6 5 3 1 2 3 5 5 4 4 4 4 5 5 5 7 12 15 18 18 17 17 17 17 17 16 16 17 17 17 17 18 18 18 18 18 18 18 18 18 18 18 18 18 18 18 18 18 18 18 19
1 1 2 2 2 1 1 1 1 1 1 1 1 1 1 1 1 1 2 2 2 2 2 1 1 2 3 4 3 2 3 3 4 5 5 6 5 3 1 1 3 4 5 5 4 4 4 4 5 6 9 15 17 18 18 18 17 17 17 17 17 17 17 17 17 18 18 18 18 18 18 18 18 18 18 18 18 18 18 18 18 18 18 18 18 18
1 1 2 2 2 1 1 1 2 2 2 2 1 1 1 1 1 1 1 1 1 1 1 1 2 2 2 4 4 3 3 3 3 4 5 5 5 3 2 2 3 4 5 5 5 5 4 4 7 10 14 17 18 19 18 18 17 17 17 17 17 17 17 17 18 18 18 18 18 18 18 18 18 18 18 18 18 18 18 18 17 17 17 18 18 18
2 2 2 2 2 2 1 2 2 3 3 2 2 1 1 1 1 1 1 1 1 1 1 1 2 3 3 4 4 4 3 2 2 3 4 5 5 4 2 2 3 5 6 6 5 4 4 4 6 10 14 16 17 18 18 18 18 17 17 17 17 17 17 18 18 18 18 18 18 18 18 18 18 18 18 18 18 18 17 17 17 17 17 17 17 17
3 2 2 2 2 2 1 2 3 3 3 2 2 1 1 1 2 2 2 1 1 1 1 1 2 3 3 4 5 5 3 2 2 2 3 3 4 3 2 1 3 5 7 6 5 5 5 5 5 7 10 15 17 18 18 18 18 17 17 17 17 17 18 18 18 18 18 18 18 18 18 18 18 18 18 18 17 17 17 17 17 17 17 17 16 15
3 3 2 3 3 3 2 3 3 3 3 3 2 1 1 1 2 2 2 1 1 1 2 2 3 3 3 4 5 5 2 0 0 1 2 3 4 3 2 1 3 5 6 6 6 5 5 6 6 7 11 15 17 18 18 18 17 17 17 17 17 18 18 19 19 18 18 18 18 18 18 18 18 18 17 17 17 17 17 17 16 16 17 16 15 13
3 3 3 3 3 3 2 2 2 2 2 3 2 2 1 1 1 2 2 1 1 2 3 3 4 4 3 4 4 4 2 1 1 1 1 3 4 3 2 2 3 5 6 6 6 6 7 7 6 7 10 15 17 18 18 17 17 17 17 17 18 18 19 19 19 18 18 18 18 18 18 18 17 17 17 17 17 16 16 16 16 16 16 15 14 13
4 3 3 3 3 3 2 2 1 1 1 2 2 1 1 1 1 1 1 1 1 2 2 3 3 3 3 3 3 3 2 1 2 2 0 2 3 3 2 3 4 5 6 6 6 7 8 8 7 7 7 12 15 16 17 17 16 17 17 18 19 19 19 19 19 18 18 18 18 18 17 17 17 17 17 16 16 16 16 16 16 16 15 14 13 13
3 3 3 3 4 4 2 2 2 3 2 2 1 1 1 1 1 1 1 0 1 1 2 3 3 4 3 2 2 2 2 0 2 2 1 2 3 4 3 3 4 5 6 6 6 6 7 8 7 6 5 8 11 14 15 15 16 17 18 19 19 20 19 19 19 18 18 18 18 18 17 17 17 17 16 16 16 16 15 15 16 15 14 13 12 12
5 4 4 3 3 2 1 2 2 3 4 3 2 2 2 2 2 2 2 2 2 2 3 4 4 4 3 2 2 2 2 0 1 2 1 1 3 4 4 3 3 4 6 6 6 6 7 8 7 6 5 5 8 11 13 14 16 17 18 19 20 20 19 19 18 18 18 18 18 17 17 17 17 16 16 16 16 15 15 15 15 15 13 12 11 11
7 7 7 6 6 6 6 6 6 4 3 4 4 4 3 2 2 2 2 2 2 3 3 3 4 4 3 3 3 3 3 1 1 1 2 0 3 4 4 3 3 4 6 6 6 6 8 8 7 6 5 4 5 7 11 13 15 17 19 19 19 19 19 19 18 18 18 18 17 17 17 17 16 16 16 16 15 15 15 15 15 14 12 10 9 8
10 10 10 10 9 9 9 8 7 7 6 5 5 5 4 3 2 2 2 2 2 2 2 2 3 4 4 4 4 3 3 1 0 1 1 0 2 4 4 3 4 4 6 6 6 6 8 7 6 5 4 3 3 5 8 12 14 16 17 18 18 18 18 18 18 18 18 18 17 17 17 17 16 16 16 15 15 15 15 15 14 13 10 8 5 3
11 11 11 11 10 10 10 9 8 7 7 7 7 6 5 3 2 1 1 1 1 1 2 2 2 3 3 4 4 4 3 2 1 1 1 1 3 4 3 4 4 4 5 6 5 5 4 4 3 3 2 3 3 3 5 9 11 12 13 15 16 17 17 18 18 18 18 17 17 17 17 17 16 16 15 15 15 15 15 15 14 11 8 5 4 3
8 8 9 9 9 8 8 7 7 8 8 8 7 6 5 2 2 2 1 1 0 1 2 2 2 2 3 4 4 3 3 3 2 2 0 2 3 4 4 4 4 4 4 5 5 5 3 3 2 2 2 3 3 4 4 5 6 7 8 10 12 13 16 17 17 17 17 17 17 17 17 17 16 16 15 15 15 15 15 15 13 9 5 4 3 2
5 5 5 5 5 5 5 5 5 6 6 7 7 6 4 2 2 2 2 1 1 0 1 2 2 2 2 3 3 3 3 3 2 1 1 2 3 4 4 4 4 4 3 4 5 5 5 4 2 1 2 4 4 5 5 5 5 4 4 5 7 9 13 15 16 16 16 16 16 17 17 17 16 16 15 15 15 14 14 15 12 9 5 4 3 2
4 4 3 3 3 3 3 3 3 3 4 4 4 4 3 2 1 1 2 2 2 1 1 2 3 3 2 2 2 2 3 3 2 2 3 3 3 3 3 4 4 4 3 3 3 4 5 5 4 4 4 5 5 5 5 5 4 4 4 4 5 7 11 13 13 13 13 14 15 16 16 16 16 15 15 15 14 14 14 15 13 10 6 4 4 3
3 3 3 3 3 3 3 3 3 3 3 2 2 2 3 2 2 1 1 2 2 2 2 2 3 3 3 3 3 4 4 3 3 5 5 3 3 3 3 4 4 4 4 3 3 3 4 5 6 6 6 6 5 5 4 5 4 4 4 4 4 5 9 9 9 9 9 11 12 13 14 15 15 14 14 14 14 14 15 15 14 12 8 5 4 4
3 3 3 3 3 3 3 3 3 3 3 2 3 3 2 2 2 2 1 1 2 3 2 2 3 3 4 4 4 4 4 3 3 5 6 4 3 3 4 4 4 4 4 4 4 4 4 5 6 6 7 6 5 4 4 4 4 3 3 3 4 5 6 6 6 6 7 7 7 8 9 10 11 11 12 12 13 14 14 15 15 14 12 8 5 4
3 3 3 3 3 3 3 3 3 3 3 3 3 3 3 3 3 3 2 2 2 3 3 3 3 3 4 4 4 5 4 3 4 6 6 4 3 3 4 4 4 4 5 5 4 4 4 6 7 7 7 6 5 4 3 3 3 3 3 4 4 4 5 5 5 5 6 5 5 5 5 6 6 7 8 10 12 13 14 15 15 14 14 11 9 6
3 3 3 3 3 3 3 4 3 3 3 3 3 3 3 3 3 3 3 3 3 3 3 3 3 3 4 4 5 6 6 5 5 6 7 5 4 3 3 3 4 4 5 5 5 5 5 6 7 8 8 7 6 5 3 3 3 3 4 4 4 5 5 5 4 4 4 4 5 5 5 5 5 5 7 10 12 13 14 14 14 14 13 13 11 9
2 2 3 2 2 3 3 3 3 3 3 3 3 3 3 3 3 4 4 3 3 3 4 4 4 4 5 5 5 6 7 6 6 6 7 5 3 2 3 3 3 3 4 5 6 6 6 7 7 7 7 6 6 5 5 5 4 4 4 4 4 4 5 5 4 4 4 5 5 6 5 5 5 6 6 10 11 12 12 13 13 13 13 12 12 11
2 2 3 2 2 2 2 3 3 3 3 3 3 4 4 4 4 4 4 4 4 4 4 3 4 5 7 8 7 7 7 7 7 7 7 4 3 2 3 3 3 3 3 4 5 6 6 7 7 7 6 6 6 6 7 6 6 6 5 5 5 5 4 4 4 4 4 5 6 7 7 6 5 5 5 6 6 6 7 7 8 10 11 10 11 11
1 2 3 3 2 2 2 2 3 3 3 3 3 4 4 4 4 4 4 4 4 4 4 4 4 4 6 7 8 9 9 7 7 6 5 3 3 3 3 3 3 3 3 4 4 5 6 6 6 6 6 7 7 7 6 6 6 6 7 6 5 4 4 4 4 5 5 5 6 7 6 5 5 4 4 4 4 4 5 5 6 7 7 6 6 8
1 2 3 3 2 2 2 2 3 3 3 3 4 4 4 4 4 4 3 3 3 3 3 3 4 4 5 6 7 7 8 6 6 5 4 3 3 3 3 3 3 4 4 4 4 5 6 6 7 7 7 7 7 7 6 6 6 7 8 6 5 4 5 5 5 5 5 5 5 6 6 5 5 5 5 5 5 5 5 4 5 5 5 4 3 4
2 2 3 3 3 3 3 3 3 3 3 3 3 3 3 3 3 3 3 3 2 2 2 3 3 3 4 4 5 5 6 6 6 6 4 4 4 4 3 3 3 4 4 4 5 5 6 7 7 7 7 7 8 8 8 7 8 8 9 7 6 6 7 6 6 5 4 4 5 5 6 6 6 6 5 5 5 4 4 4 4 5 5 3 3 2
2 2 2 3 3 3 3 3 3 3 3 3 2 3 3 3 4 4 4 4 4 4 3 3 3 3 3 4 4 4 5 5 5 6 6 6 5 5 4 4 4 4 4 5 6 6 6 7 7 7 7 7 7 7 7 7 7 7 7 7 7 8 7 6 5 4 4 5 5 5 6 6 6 5 6 5 5 4 5 5 5 6 5 3 2 2
2 2 2 2 2 3 3 3 3 3 3 3 3 3 3 3 3 4 5 5 5 5 5 4 4 4 4 4 4 4 4 4 5 5 6 6 5 5 5 5 5 5 4 5 5 6 7 7 7 7 7 6 6 7 8 8 7 7 7 7 7 7 5 4 3 3 4 5 5 5 5 5 5 5 5 5 5 4 4 5 6 6 6 4 3 2
1 2 2 2 2 2 2 3 3 3 3 3 3 3 3 3 4 4 4 4 4 5 5 4 4 4 3 4 4 4 4 4 4 5 5 6 6 5 6 6 6 5 4 4 5 6 7 7 7 7 6 6 6 7 7 7 7 7 6 7 7 6 5 5 5 6 5 5 4 4 4 4 4 5 4 5 4 4 4 4 4 4 5 4 3 3
2 2 2 2 2 2 2 3 3 3 3 3 3 3 3 3 4 4 4 4 4 4 4 4 4 4 4 4 4 4 4 3 3 3 4 5 7 7 5 5 5 5 5 5 5 5 6 7 7 6 5 5 6 7 7 7 7 7 7 7 7 7 6 6 7 7 6 5 5 4 4 4 4 4 4 4 4 4 4 4 4 4 4 4 3 3
2 2 2 2 2 3 3 3 3 3 3 3 3 3 3 3 3 3 3 3 4 4 4 3 3 4 4 5 5 5 5 4 4 3 3 3 4 4 4 5 5 5 5 5 6 6 6 7 7 6 6 6 6 7 7 7 6 6 6 7 6 6 6 6 6 6 6 6 5 5 4 4 4 4 4 4 4 4 4 4 4 4 4 4 3 3
1 1 2 2 2 2 3 3 3 3 3 3 3 3 3 4 4 4 3 3 3 4 4 3 3 3 4 5 5 5 6 6 5 5 4 4 4 4 4 4 5 6 6 6 6 7 7 7 7 6 6 6 6 6 6 5 5 5 6 6 6 6 6 6 6 5 5 5 5 4 4 4 4 4 5 5 4 4 4 4 4 4 4 3 3 3
1 2 2 2 2 2 3 3 3 3 3 3 3 3 4 4 5 5 4 3 3 4 4 4 4 4 4 4 4 5 6 6 6 6 5 5 4 4 4 4 4 5 6 7 7 8 8 8 8 8 6 5 5 5 6 5 5 5 5 5 5 6 6 6 6 5 5 5 5 4 4 4 4 4 5 5 5 4 4 4 4 4 3 3 3 3
1 2 2 2 2 2 3 3 3 3 4 4 4 4 4 5 6 6 3 3 4 4 4 4 5 5 5 5 5 5 6 6 6 6 5 5 5 5 4 4 4 4 5 5 5 5 6 7 8 9 8 7 6 6 6 6 5 4 4 4 5 5 6 6 5 5 5 5 5 4 3 3 3 4 4 5 5 5 5 4 4 3 3 3 3 3
1 2 2 2 2 2 3 3 3 4 4 5 5 5 4 4 4 3 3 3 3 3 3 4 5 5 5 5 6 6 6 6 6 5 5 5 5 5 5 5 5 5 5 4 4 3 3 4 5 7 9 9 8 7 6 5 5 4 4 4 4 5 5 5 5 5 5 5 5 4 4 3 3 3 3 4 5 5 5 5 4 3 3 2 2 2
2 2 2 2 2 2 3 3 3 4 4 5 5 5 5 4 4 3 3 3 3 4 4 4 4 5 6 6 6 6 6 6 6 6 6 6 6 6 6 6 6 6 6 5 5 4 4 4 3 3 5 7 7 7 5 4 4 4 4 4 4 4 4 4 5 5 6 5 5 5 4 4 3 3 3 3 4 5 5 5 4 3 3 2 2 2
Wind_Direction
97 98 67 11 44 80 50 22 34 43 21 353 343 342 345 352 347 339 344 353 350 336 325 317 312 312 318 326 329 329 328 327 328 329 330 331 331 331 330 329 328 326 325 323 322 320 320 319 318 318 317 317 316 316 316 316 316 315 315 314 314 314 314 313 313 313 312 312 312 312 312 312 313 313 314 315 316 317 318 319 319 318 317 316 315 315
100 99 74 27 48 75 77 14 47 70 49 343 332 336 345 342 337 332 333 340 335 324 314 309 309 310 312 318 324 327 327 328 330 332 333 333 333 332 331 330 329 328 327 326 324 323 322 322 321 320 319 319 318 317 317 317 316 316 316 315 315 315 314 314 314 313 312 312 312 313 313 313 314 315 316 317 318 319 319 319 318 317 316 315 315 315
116 111 83 28 43 64 85 333 345 121 153 257 300 326 344 339 334 329 330 328 322 314 302 300 305 309 309 311 318 324 326 329 332 334 334 334 333 332 332 331 330 330 329 328 327 326 325 324 323 322 322 321 320 319 319 318 318 318 317 317 316 316 315 315 314 313 313 313 314 314 314 315 315 316 317 318 318 318 317 316 315 314 313 312 312 312
114 124 119 20 29 43 326 298 293 274 213 246 290 327 347 332 314 308 307 309 310 307 300 296 301 305 305 305 311 318 324 329 333 335 334 334 333 332 332 332 331 331 331 330 329 328 327 326 326 325 324 323 322 322 321 321 321 320 320 319 318 317 316 315 314 313 314 315 315 315 316 316 317 317 318 318 317 316 315 314 313 312 312 311 311 311
121 110 109 40 29 356 300 299 302 304 307 322 335 339 343 309 295 294 298 301 304 304 302 301 300 299 299 298 304 312 321 328 332 333 333 332 332 332 332 332 332 332 332 332 331 330 330 329 328 327 326 326 325 324 324 324 323 323 322 320 319 317 316 315 315 315 316 317 317 317 317 317 318 318 317 317 316 315 314 314 313 313 312 312 312 312
219 317 356 49 61 322 326 342 343 346 359 359 357 349 339 312 301 303 309 311 309 305 301 299 293 289 286 285 297 308 318 325 329 331 331 331 331 332 332 332 333 333 333 333 332 331 331 330 330 329 329 328 328 327 327 326 325 324 323 321 319 317 316 316 317 317 318 319 319 319 319 318 318 318 317 316 316 315 315 314 314 313 313 313 314 314
256 319 354 7 356 339 350 1 3 5 12 4 358 350 342 328 316 307 301 304 304 303 299 295 290 284 277 277 289 300 311 318 322 325 327 329 330 331 331 332 333 333 333 333 332 332 331 331 331 330 330 330 330 330 329 328 326 325 322 321 319 318 318 318 319 319 320 320 320 319 319 319 318 317 316 316 315 315 315 315 314 314 313 313 314 314
136 338 1 13 14 8 4 9 18 22 26 28 12 356 342 336 323 305 297 301 302 302 304 305 303 297 283 274 279 287 296 305 310 315 321 325 328 329 330 332 332 333 332 332 332 331 331 331 331 331 331 331 331 331 330 328 326 324 322 320 319 319 319 320 320 321 321 321 321 320 319 318 318 317 316 316 315 315 315 314 314 313 313 313 314 314
119 111 25 27 47 56 34 4 10 22 31 47 51 32 350 336 326 318 316 314 309 305 306 314 315 311 299 278 265 264 269 290 301 310 318 323 327 329 330 331 332 332 331 330 330 330 330 330 329 330 331 331 331 331 330 328 326 324 322 320 320 320 320 321 322 322 322 321 321 320 319 318 317 317 316 316 315 315 314 313 313 313 313 314 314 314
78 88 70 31 45 82 100 357 348 1 26 50 75 89 83 359 339 333 331 322 313 306 301 309 311 309 305 294 272 252 261 294 310 319 327 328 328 328 328 329 330 329 328 328 328 328 328 327 328 329 330 331 331 330 328 327 325 323 321 320 320 320 321 322 323 323 322 321 321 320 319 318 317 317 316 316 315 314 314 313 313 313 313 314 314 314
56 55 68 39 23 27 68 306 309 329 19 44 50 53 63 51 9 347 336 326 323 322 316 304 300 299 301 300 295 285 285 299 308 316 325 327 327 327 327 326 325 324 325 324 325 324 325 325 326 327 329 329 329 328 326 325 323 322 320 320 320 321 322 322 323 323 322 321 321 320 319 318 318 317 316 315 315 314 314 314 314 314 314 314 314 313
73 55 63 52 32 15 1 334 327 343 24 38 30 14 354 8 37 1 328 320 321 322 321 310 296 283 277 284 296 309 320 316 316 317 322 323 324 324 323 323 322 321 320 319 319 319 320 322 324 326 327 327 326 325 324 322 321 320 320 320 320 321 322 322 322 322 322 321 321 320 319 318 318 317 316 315 315 315 315 315 315 314 314 314 313 312
80 78 74 56 43 28 17 8 4 10 25 43 41 350 310 304 293 237 281 294 303 309 312 310 302 287 264 258 278 311 319 322 324 326 327 325 321 319 318 316 314 312 311 310 309 310 314 319 322 324 325 324 323 322 321 320 320 320 320 320 320 321 322 322 322 322 322 321 321 320 319 318 317 316 315 315 315 315 315 315 315 315 314 314 313 312
86 77 73 60 48 34 32 40 34 22 8 156 189 209 246 268 281 287 288 290 292 293 296 299 297 292 278 271 268 293 314 324 327 329 330 326 318 313 312 311 309 307 302 301 297 299 307 317 321 321 321 320 319 318 317 318 319 320 320 320 320 321 321 322 322 322 322 321 321 320 319 318 317 316 316 316 316 316 316 316 316 315 314 313 312 311
120 108 97 99 97 96 110 114 116 233 242 224 213 208 238 275 290 299 310 306 303 301 302 297 291 287 284 282 272 274 313 331 332 330 329 323 315 306 301 307 306 306 305 305 300 299 307 313 313 310 312 312 312 313 315 318 319 320 320 320 320 321 321 321 322 322 322 321 321 320 319 319 318 317 317 317 317 317 317 317 316 315 314 313 312 311
132 124 125 137 151 175 198 168 179 215 236 229 211 177 246 298 300 303 312 307 308 313 324 324 320 311 296 288 269 273 336 341 335 328 324 318 314 309 296 311 311 311 312 311 307 305 308 308 305 304 305 309 312 315 317 319 319 319 319 320 320 321 321 321 321 321 322 321 321 321 321 320 320 319 319 319 319 319 318 317 316 315 314 313 312 311
122 120 123 130 147 179 213 191 190 203 226 224 204 178 188 254 280 289 293 298 306 316 330 339 337 330 318 314 306 319 2 349 336 324 319 313 310 308 295 309 310 310 313 312 309 307 310 310 309 307 305 310 314 317 318 319 319 319 319 319 320 321 321 321 321 321 322 322 322 322 322 321 321 321 321 321 320 320 319 318 317 316 315 314 313 312
124 128 127 131 146 169 193 197 201 208 209 215 210 206 207 227 246 263 275 290 304 314 317 327 315 306 313 313 312 326 14 359 336 319 314 308 305 304 304 304 304 306 309 310 308 307 307 307 309 309 308 314 316 317 318 318 318 318 318 319 320 320 321 321 321 322 322 323 323 323 323 323 322 322 322 322 322 321 320 319 318 317 316 314 313 312
145 146 141 141 147 158 174 194 202 205 204 204 197 196 235 244 250 255 263 263 267 271 277 286 273 265 272 287 298 317 6 5 337 316 308 304 304 306 315 320 313 309 310 310 309 307 306 303 305 309 311 314 315 316 316 316 317 317 318 318 319 320 321 321 322 323 323 324 324 324 324 324 323 324 324 324 323 322 322 321 320 318 317 315 314 314
141 143 143 141 140 147 187 213 213 206 199 188 171 167 226 252 258 257 253 242 229 221 220 245 261 266 264 282 295 309 344 3 346 314 298 297 298 300 310 329 322 316 313 310 309 309 309 304 305 308 311 312 313 314 315 316 316 317 317 318 319 320 322 322 323 324 324 325 325 325 325 325 325 325 325 325 325 324 323 322 321 319 317 316 316 319
139 151 164 150 145 148 183 217 218 210 192 155 136 137 211 245 255 253 247 239 235 237 233 252 263 267 269 289 296 303 327 1 347 311 293 293 293 292 297 323 322 316 311 309 310 312 312 308 306 305 308 310 312 313 314 315 315 316 317 318 320 322 323 324 325 325 326 326 326 326 326 326 326 326 326 326 326 325 325 323 322 320 318 318 321 327
140 156 173 166 161 161 177 206 215 211 184 148 147 181 234 249 259 261 253 240 240 249 259 265 269 271 273 277 281 286 311 31 246 276 294 296 293 290 287 316 320 316 310 309 312 315 315 311 306 304 305 308 310 311 313 314 315 316 317 319 321 323 324 325 326 327 327 327 328 327 327 327 327 327 327 327 327 326 325 324 322 320 319 322 330 340
131 148 165 177 181 183 188 204 215 211 168 160 176 199 208 210 222 232 232 223 234 254 265 269 273 274 269 266 271 278 290 182 164 182 278 287 291 293 301 328 322 314 306 309 314 317 315 310 306 303 303 306 308 309 311 313 314 316 318 321 323 324 326 326 327 328 328 329 329 328 328 328 329 329 329 328 328 327 326 324 322 321 323 331 342 353
126 142 162 181 192 201 207 217 210 186 153 169 183 190 171 173 181 185 187 201 241 265 276 284 287 287 277 265 270 279 284 165 141 141 190 272 283 295 317 328 320 311 304 308 313 314 312 307 302 299 298 301 304 306 309 312 315 318 320 322 324 325 326 327 328 329 329 329 329 329 329 330 330 330 330 329 328 327 326 324 323 324 328 341 352 360
137 151 168 181 190 195 203 207 189 173 162 162 151 116 72 73 87 94 78 52 329 306 303 311 312 309 300 292 291 289 280 145 133 139 171 268 285 297 311 317 314 309 306 309 312 311 307 303 300 297 294 296 301 305 309 313 316 319 322 323 325 326 327 328 329 329 330 330 330 330 331 331 332 332 331 330 329 328 326 324 325 329 337 351 1 4
146 151 154 150 147 139 89 61 97 133 141 141 134 112 84 70 58 46 34 23 1 342 335 330 323 314 306 305 300 293 280 215 129 135 148 274 294 300 304 311 315 311 307 309 311 310 304 300 299 298 296 294 300 306 310 315 319 322 323 324 325 327 328 329 329 330 330 330 331 331 332 332 333 333 332 331 329 328 326 326 329 334 344 358 5 5
108 100 91 79 67 54 39 29 26 34 68 109 118 114 106 86 54 25 4 359 355 350 348 339 327 318 315 316 308 299 292 302 120 130 136 274 298 299 304 320 324 318 310 308 306 304 300 296 296 297 297 297 303 310 314 318 321 323 324 325 326 327 328 329 330 330 331 331 332 333 333 333 333 333 332 331 329 328 327 329 333 340 350 3 9 6
71 67 61 56 50 42 34 26 19 15 19 39 65 82 92 88 58 17 334 334 342 350 349 337 325 319 318 317 311 303 296 300 205 167 149 278 297 297 307 324 327 320 313 307 302 297 292 287 286 286 289 294 304 313 316 321 323 324 324 325 326 327 329 330 330 331 331 332 333 334 334 334 334 334 333 331 330 329 329 332 336 343 354 4 9 1
56 56 53 49 43 38 32 24 19 16 17 24 37 50 64 83 93 93 258 300 336 347 333 320 311 308 306 305 303 300 295 286 250 212 167 312 300 297 313 326 328 324 319 311 304 296 282 274 272 273 279 294 305 313 315 321 322 322 322 324 326 327 329 330 331 331 332 333 334 334 335 335 334 334 333 331 330 330 331 335 339 344 357 2 0 347
44 45 42 36 32 29 26 21 18 17 21 28 37 46 57 86 123 148 169 156 57 346 320 309 303 301 305 309 311 310 300 283 254 223 176 327 312 307 321 325 327 330 333 324 317 310 297 279 265 260 280 306 314 317 315 319 319 318 318 322 325 327 329 330 331 332 333 333 333 334 334 334 334 333 332 331 331 332 334 337 340 345 355 354 348 335
36 36 28 18 12 11 13 15 14 15 18 25 31 36 46 75 119 144 150 142 142 163 290 296 296 297 304 316 320 313 295 280 258 242 23 336 316 309 324 322 324 330 345 337 326 318 313 307 295 286 307 317 319 320 320 319 317 316 317 321 324 326 328 329 330 331 331 332 332 332 333 332 332 332 330 330 331 333 336 338 340 343 346 343 338 328
42 37 22 5 358 358 4 5 4 3 7 11 14 16 19 32 67 133 155 156 159 173 233 271 281 283 280 268 265 270 277 279 295 326 4 335 311 303 317 315 317 322 332 327 313 305 306 307 310 315 322 320 319 319 319 319 318 318 320 324 323 324 326 328 328 329 328 329 329 329 329 329 329 328 328 329 331 334 337 338 339 340 341 338 334 329
44 34 15 2 358 355 356 355 352 349 350 350 349 352 358 358 1 15 169 173 174 179 204 248 270 277 275 261 255 257 267 275 310 336 351 333 311 304 312 312 313 314 316 308 290 277 278 291 302 311 315 314 314 314 315 317 318 319 323 324 322 320 322 324 324 324 322 324 324 324 324 323 323 323 325 328 331 333 335 337 337 338 339 336 334 332
36 26 13 3 357 352 349 348 347 345 343 341 340 341 342 339 341 336 285 212 196 193 197 222 249 269 280 276 272 270 271 270 309 334 343 328 309 303 308 309 310 311 313 306 296 285 275 284 295 303 306 308 309 309 310 312 317 320 319 318 315 313 314 316 315 314 314 317 317 314 314 313 314 317 323 327 329 332 334 335 337 337 337 336 334 334
26 17 8 1 354 348 344 344 342 340 338 337 336 335 334 331 325 317 303 274 239 217 208 212 225 245 264 276 281 283 282 282 313 329 328 317 307 303 304 304 307 310 310 305 303 299 293 293 297 301 304 306 307 306 305 307 313 317 310 308 306 304 303 303 303 305 307 310 307 302 299 298 304 314 323 326 328 330 332 334 336 336 336 335 335 335
20 7 357 351 345 340 336 334 333 334 333 331 328 327 326 324 316 309 301 288 273 259 247 234 229 232 242 258 269 277 284 291 306 312 308 303 298 297 297 296 301 306 305 303 303 302 300 300 300 302 303 304 305 307 309 312 316 316 312 308 303 299 295 294 294 296 302 304 302 299 298 302 312 320 325 326 328 329 331 333 334 334 334 335 335 334
12 351 336 329 324 321 319 319 322 326 329 328 325 325 324 317 310 302 295 286 279 276 274 266 257 250 248 251 258 266 277 286 290 291 287 283 277 271 272 281 289 295 297 299 302 303 303 302 302 301 299 299 301 307 314 319 320 319 314 312 307 301 295 295 295 296 298 300 302 305 309 316 322 325 324 325 327 329 330 330 331 331 332 332 332 331
354 329 313 306 302 303 307 309 315 322 329 327 325 321 317 307 298 290 286 280 274 271 271 270 269 267 265 266 266 266 270 270 270 270 270 265 250 234 238 261 272 276 275 286 294 300 301 300 301 302 299 296 296 301 308 314 316 316 313 311 306 302 297 297 298 299 299 301 306 311 316 320 322 321 319 323 326 327 326 327 327 328 328 328 327 327
327 308 300 300 298 297 295 301 310 317 322 319 316 312 307 298 290 282 275 271 267 263 259 259 263 268 269 271 272 273 273 269 265 263 262 250 230 217 224 246 262 269 267 274 282 287 289 289 291 294 297 299 300 301 303 305 307 309 310 309 307 304 300 301 301 301 300 303 308 312 316 316 317 316 316 321 324 325 323 321 322 323 323 321 320 322
283 283 287 296 299 298 291 298 304 310 314 312 312 311 308 301 295 286 275 271 269 265 256 253 256 261 267 271 274 276 278 278 276 274 266 242 215 206 212 232 255 271 276 275 276 277 278 279 280 282 285 290 295 299 301 302 305 308 311 312 313 313 312 308 303 299 298 302 307 311 313 313 315 318 321 323 324 323 320 317 315 314 312 308 307 314
263 272 281 292 301 304 302 305 308 310 311 315 316 317 315 316 316 313 307 308 307 302 295 288 282 279 278 277 276 274 274 274 272 269 261 244 228 217 214 228 245 263 274 276 277 277 276 277 278 278 279 283 288 292 294 298 302 306 309 308 306 305 307 304 301 299 301 304 305 308 311 315 319 322 321 320 318 314 311 307 304 301 301 300 303 310
269 277 284 295 303 310 311 315 319 323 324 323 317 315 317 327 330 332 336 340 340 337 333 331 325 318 309 297 287 279 272 268 265 262 259 250 240 229 223 231 241 254 266 274 277 277 276 277 277 278 280 283 287 290 292 294 297 300 302 299 299 300 299 297 295 298 304 303 303 305 312 315 317 318 316 315 311 306 305 302 301 302 304 305 302 295
277 282 287 291 294 296 304 317 327 332 333 327 318 313 315 324 331 337 342 343 341 338 337 335 330 324 318 311 304 296 286 272 263 259 257 251 242 232 225 232 239 247 259 272 278 279 277 276 276 277 278 281 283 285 288 292 294 295 293 293 297 301 303 301 299 298 297 297 299 302 308 310 310 309 309 308 306 303 301 301 301 302 304 298 288 274
278 283 287 290 293 300 316 335 339 331 322 314 310 310 315 325 336 343 347 342 335 332 331 327 323 321 320 318 316 311 302 286 274 267 260 249 238 228 227 229 234 241 246 260 273 281 283 280 277 275 276 280 281 282 283 286 289 290 288 287 288 289 289 296 301 302 299 296 296 299 301 303 304 304 303 302 301 300 299 298 296 295 294 287 278 267
288 290 297 314 328 337 345 343 334 322 308 305 305 310 321 333 343 348 348 338 331 327 323 325 329 333 332 327 324 321 317 306 294 282 270 261 266 269 255 244 242 245 243 248 258 269 279 282 282 281 280 278 276 275 276 278 281 283 283 284 284 283 280 285 290 294 296 298 298 298 298 301 304 305 303 301 300 300 300 299 295 291 288 285 278 271
281 294 314 332 339 342 340 329 319 311 303 305 310 320 332 339 343 343 341 334 327 320 315 322 332 335 330 325 324 323 322 318 313 306 297 283 282 281 270 256 255 257 258 256 256 258 262 269 275 280 284 281 275 270 267 268 272 276 280 283 284 283 281 282 284 287 291 295 297 297 298 301 303 304 303 303 303 303 300 296 291 289 287 285 280 275
300 318 332 336 332 324 315 308 306 308 314 320 327 335 341 340 339 338 338 334 325 318 318 322 325 323 317 316 317 319 320 320 320 319 316 310 301 288 274 266 265 267 270 268 265 260 257 255 257 262 269 275 276 273 267 261 260 265 272 278 281 282 283 284 286 288 291 292 293 296 301 305 305 304 303 305 305 302 298 292 287 283 281 280 279 276
343 349 350 344 336 327 320 320 323 329 339 341 342 343 345 342 342 341 336 329 322 320 325 329 326 320 312 309 308 309 313 315 318 319 318 315 309 302 296 289 283 278 274 271 269 265 260 253 249 245 243 248 259 269 273 268 261 259 266 274 279 283 285 286 287 289 289 289 289 291 296 301 303 305 306 307 305 302 297 294 289 282 275 271 269 269
5 359 354 347 342 340 341 340 343 349 353 349 345 341 339 337 338 338 327 319 318 321 327 326 324 319 315 310 307 308 311 312 314 315 315 313 312 309 306 300 295 290 283 275 268 263 259 254 246 238 228 224 232 248 265 267 265 261 264 271 275 278 281 284 287 289 291 290 288 286 286 289 292 296 301 302 301 299 297 295 290 282 271 263 259 257
24 11 355 346 347 350 347 344 349 353 353 349 343 338 332 330 329 326 312 309 313 316 318 317 316 315 313 311 312 314 316 316 315 314 314 314 315 314 311 308 307 305 302 295 287 280 275 267 254 241 226 218 218 227 247 260 264 264 260 263 267 272 279 284 288 291 292 292 291 290 288 286 286 287 288 292 293 294 296 294 290 284 273 263 258 258
22 13 353 345 351 356 349 346 350 353 349 344 340 335 330 328 325 323 316 317 317 315 312 310 309 310 310 312 314 317 318 316 315 315 315 315 315 314 312 312 313 315 316 317 318 316 315 313 303 278 246 231 224 223 233 251 264 271 272 271 272 276 282 286 288 290 292 292 292 291 290 287 284 281 278 282 287 291 293 294 292 289 282 275 270 272